Wind_Speed
4 4 4 3 3 3 3 4 5 5 6 6 6 5 4 3 4 1 3 2 3 6 6 6 7 6 7 9 9 8 9 9 9 10 10 11 11 11 11 11 12 11 10 10 10 10 9 10 9 4 2 6 7 8 9 8 11 15 16 15 16 17 18 19 19 19 17 16 16 16 16 18 18 18 19 19 18 18 18 18 18 18 18 17 17 16 16
4 3 3 4 4 4 3 3 3 4 4 4 3 2 2 1 2 4 4 3 4 5 5 7 6 5 6 8 8 10 10 9 10 11 11 11 11 11 11 11 11 11 11 11 11 11 11 11 12 10 6 3 4 6 7 8 10 13 15 16 15 16 18 20 19 18 16 16 17 17 18 21 21 19 19 20 19 17 17 17 17 17 18 17 17 17 16
5 3 3 4 5 5 5 4 3 3 1 1 1 2 3 3 3 4 5 6 5 4 5 6 6 5 6 7 9 10 9 8 10 12 12 11 11 11 12 11 12 11 12 12 12 12 12 12 11 12 11 8 4 4 5 7 10 11 13 15 13 13 16 18 17 16 16 17 18 17 17 18 17 17 19 20 20 18 15 16 17 17 17 18 18 17 17
3 3 3 5 5 6 8 7 6 6 4 1 1 2 1 2 1 4 5 4 4 4 4 5 7 7 7 8 8 8 7 7 10 12 13 11 10 12 12 12 13 12 12 13 13 13 13 13 13 11 9 9 8 5 4 6 8 10 12 14 13 11 12 13 14 14 14 16 17 17 17 18 18 20 21 21 21 20 18 17 18 18 18 18 18 18 17
1 3 2 4 5 7 7 4 4 4 3 2 1 2 1 1 0 2 3 1 5 5 5 5 6 6 5 6 6 6 7 6 10 12 12 11 11 12 12 12 12 12 12 14 15 15 15 14 14 12 9 8 8 7 4 4 4 6 9 11 11 11 10 11 12 13 13 14 16 18 20 20 19 21 22 20 19 19 20 19 18 17 17 18 17 17 17
1 2 2 5 6 6 2 2 0 1 2 3 3 1 1 2 1 2 3 6 6 6 5 5 7 6 3 3 4 4 7 6 9 11 11 10 11 12 11 11 12 13 14 15 15 16 15 13 13 12 10 9 7 6 5 5 5 4 5 6 7 9 10 10 11 12 13 15 16 18 19 19 18 20 22 22 20 18 19 19 18 17 16 15 15 14 13
2 0 3 7 5 1 3 3 1 2 2 3 3 1 2 2 2 1 5 6 5 5 6 6 8 8 5 4 6 5 7 7 8 9 10 10 10 10 10 10 11 13 15 16 17 16 14 13 12 12 12 11 10 9 8 9 10 10 9 9 8 7 8 11 12 12 13 14 15 17 19 18 18 19 19 20 19 16 17 18 17 15 14 13 13 13 13
2 2 5 5 2 1 3 5 4 4 4 4 4 4 5 4 3 2 4 5 5 5 6 7 7 8 6 5 7 6 5 5 6 7 9 10 10 10 10 10 11 13 14 15 16 14 12 13 13 13 13 14 14 14 14 13 13 14 16 17 16 14 12 10 11 12 14 14 14 16 18 17 18 18 17 16 15 14 15 17 16 13 11 11 12 14 14
3 4 4 3 4 3 4 5 5 4 4 3 3 3 4 6 4 3 4 6 6 5 6 7 7 7 6 5 6 6 4 3 4 6 8 9 10 11 12 12 12 12 13 14 14 14 14 15 15 15 15 17 18 18 19 18 17 16 17 17 17 17 17 15 10 6 7 9 10 12 14 15 17 18 17 15 13 11 12 13 11 9 7 7 10 11 12
3 5 5 4 5 3 2 3 4 4 2 2 1 3 2 7 7 5 5 6 7 6 6 7 7 5 4 3 4 4 3 2 3 5 6 8 10 11 11 12 13 12 12 13 13 13 15 16 17 17 17 18 19 21 21 21 20 18 18 17 15 15 18 19 17 12 8 5 1 2 5 8 12 15 16 15 12 10 11 10 9 8 8 7 8 8 8
4 5 5 4 3 1 3 4 4 5 4 4 3 3 2 6 7 6 6 7 8 7 7 7 7 4 3 2 4 5 3 3 4 5 6 7 9 11 11 11 12 12 12 12 12 13 14 15 16 17 18 18 19 21 21 21 21 21 19 17 16 16 18 22 22 19 17 14 10 7 6 4 1 5 9 12 12 8 7 7 6 6 7 7 7 7 6
4 5 5 4 2 2 5 5 5 6 4 4 5 4 1 5 7 7 7 7 8 8 7 7 6 3 2 3 6 7 6 5 5 6 7 7 8 10 10 10 11 11 11 12 13 14 14 14 14 16 17 18 18 18 17 18 20 20 18 18 20 19 19 22 25 25 23 21 19 16 13 10 7 4 0 6 9 7 6 7 5 4 5 5 3 4 4
4 4 5 4 1 4 6 5 5 6 5 5 5 2 2 5 7 6 6 6 7 7 7 6 4 1 4 6 8 9 7 6 6 7 8 8 9 10 9 9 9 10 11 12 13 13 13 13 14 14 15 16 16 15 15 16 17 16 14 16 20 21 21 22 25 25 24 23 23 22 18 14 11 9 6 4 6 4 5 6 6 5 3 3 1 0 1
4 3 5 5 1 3 5 6 5 5 5 4 1 2 3 5 6 5 5 5 6 6 6 4 2 4 7 9 9 8 7 7 7 7 8 8 9 9 9 9 9 10 11 12 12 13 13 13 13 14 14 15 15 14 15 16 14 13 13 14 16 18 20 21 21 22 21 21 20 20 18 15 13 12 10 8 6 3 3 5 7 7 5 4 3 2 1
3 3 5 5 1 3 7 8 6 4 4 0 2 3 3 4 6 5 4 4 5 6 6 5 5 7 9 9 8 8 7 7 8 8 8 8 8 9 9 9 9 10 11 11 12 12 12 12 12 13 13 14 14 14 15 14 12 12 12 12 13 14 16 17 18 19 19 18 16 15 14 12 10 10 11 10 9 6 4 6 9 12 11 9 7 5 5
4 5 4 2 2 5 9 7 2 2 2 4 3 4 3 4 4 4 4 4 4 5 6 7 8 9 10 9 8 8 6 7 8 9 9 8 8 8 9 9 10 10 10 11 11 11 12 12 12 12 12 13 13 14 14 12 11 11 11 11 12 13 13 13 15 16 18 18 16 14 12 11 10 10 11 12 12 11 10 11 13 15 14 12 10 10 9
3 3 2 3 3 6 8 3 3 4 5 5 3 3 3 4 3 2 3 5 5 5 7 8 9 9 10 10 9 8 7 7 8 9 9 8 8 9 9 9 9 9 10 11 11 11 11 11 11 12 12 12 12 12 11 10 10 11 11 12 12 13 13 12 13 13 15 17 17 16 14 13 13 12 12 12 14 15 16 15 14 15 14 12 12 12 11
2 1 3 3 3 6 7 3 3 4 4 4 3 3 4 4 4 3 3 5 7 7 8 9 9 10 11 10 9 8 7 8 9 9 9 8 8 9 10 9 9 9 10 11 12 12 12 11 11 12 11 11 11 10 9 10 10 10 10 11 12 12 12 13 13 14 14 14 15 16 15 14 15 15 14 13 12 13 15 14 13 13 13 11 11 11 11
3 3 4 5 5 6 7 5 4 4 4 4 3 3 4 5 5 5 5 7 7 8 8 10 10 11 11 10 9 8 7 8 9 9 8 8 8 9 9 9 8 9 10 11 12 13 12 11 11 11 11 11 10 9 9 9 9 9 9 10 10 11 12 12 12 14 14 14 14 15 15 14 14 16 18 17 13 12 12 12 11 12 11 11 10 9 9
3 2 5 6 5 5 6 6 6 6 6 5 4 4 6 6 6 7 7 8 8 8 8 10 11 11 10 9 9 8 7 7 9 9 9 9 9 8 8 8 8 9 10 11 11 12 12 11 11 12 11 11 10 10 10 9 9 9 9 9 10 10 10 10 11 11 12 12 13 14 16 16 15 14 14 15 15 14 13 11 10 10 10 11 11 10 9
3 3 6 7 6 6 7 6 6 7 7 7 7 7 7 8 8 8 8 8 8 8 9 10 11 11 10 9 9 9 8 8 8 9 8 8 8 8 7 7 8 8 9 10 10 11 11 11 11 12 11 11 10 10 10 9 9 8 8 8 9 9 8 9 8 8 9 10 10 11 13 16 17 16 14 13 12 13 14 12 10 9 9 9 9 9 9
5 4 8 9 5 5 8 9 8 8 8 8 9 8 9 9 9 8 9 8 8 9 10 11 10 9 9 9 10 10 9 9 9 9 8 7 7 7 7 6 7 7 8 9 10 10 9 9 10 11 11 10 10 9 9 9 9 8 7 7 7 8 8 8 8 7 7 8 9 8 8 10 12 14 15 15 13 13 13 14 13 11 11 10 10 10 9
4 3 11 12 5 3 9 12 11 10 9 9 10 9 9 9 9 8 9 9 8 9 10 10 10 9 9 10 10 10 10 10 10 9 7 7 7 6 6 5 5 6 6 7 8 9 8 9 9 9 9 9 9 9 9 9 9 8 8 7 7 7 7 8 8 7 7 7 7 7 7 7 7 8 10 12 13 13 13 13 13 13 13 13 13 13 11
1 3 10 11 4 2 10 14 12 11 9 9 10 10 9 10 10 9 9 9 9 9 9 9 10 10 10 10 10 10 10 11 10 8 7 6 6 5 5 4 4 5 5 6 7 7 7 7 7 7 7 7 8 8 8 8 8 8 7 6 6 6 7 7 7 7 6 6 5 5 5 5 4 4 5 7 9 10 11 11 12 12 13 14 14 14 13
1 4 9 8 3 4 10 12 11 11 10 9 9 10 10 10 11 11 10 9 10 11 10 9 10 11 11 11 10 10 11 10 9 8 7 6 5 5 5 4 3 3 4 5 6 6 6 5 5 5 5 6 6 6 6 7 7 7 6 6 6 6 5 5 5 5 5 5 5 4 4 3 3 2 2 2 4 6 7 9 10 10 11 12 12 12 12
3 6 9 8 6 7 10 11 11 11 11 11 10 10 11 11 11 11 11 11 11 12 11 11 11 12 11 11 10 10 11 11 9 8 8 7 7 6 5 5 4 3 3 5 6 6 5 4 4 4 4 5 5 5 5 5 5 5 5 5 4 5 5 4 4 4 4 4 3 3 3 2 2 1 1 2 2 2 3 4 6 7 7 8 9 9 10
4 7 10 9 8 9 10 11 11 12 12 12 11 12 13 13 11 10 11 11 11 12 12 12 12 12 12 11 11 11 11 11 9 9 9 8 8 6 5 4 3 3 4 5 6 5 4 3 3 4 5 5 5 4 4 4 4 4 4 3 2 3 4 4 3 3 4 4 3 3 2 2 2 2 1 0 0 0 0 1 2 3 4 4 6 7 9
4 7 8 7 7 10 11 11 13 14 13 13 14 14 14 13 11 10 10 10 10 10 11 11 12 12 12 12 12 11 11 11 10 9 8 7 6 6 5 4 3 3 5 6 6 5 4 4 4 4 5 5 5 4 4 3 3 3 3 3 2 1 2 3 2 3 3 3 3 3 3 3 3 3 2 2 2 1 1 1 1 1 1 1 2 4 7
6 6 3 1 4 10 10 10 13 15 13 13 14 14 14 13 11 10 10 10 10 10 10 11 12 12 12 13 12 12 12 11 11 9 8 7 6 6 5 5 4 5 5 5 5 4 4 3 4 4 4 4 4 4 4 4 3 2 3 3 3 3 2 2 2 3 3 2 2 3 3 3 3 3 3 3 2 2 2 2 1 1 1 1 1 0 3
7 7 4 2 5 11 12 11 13 15 14 13 14 14 13 12 11 9 10 11 10 10 10 11 11 11 11 12 12 11 11 10 10 9 8 8 7 7 7 6 6 5 4 4 4 3 2 2 2 2 3 4 5 5 5 5 5 4 4 4 4 4 3 3 3 3 3 3 3 3 3 3 3 3 4 3 3 3 3 3 2 3 2 2 3 2 1
9 8 7 5 6 10 12 12 13 14 13 13 14 13 13 12 11 10 10 10 9 10 11 11 11 11 10 10 10 10 9 9 9 9 9 9 8 8 8 7 5 3 3 3 3 2 1 0 1 1 2 4 5 6 7 7 7 6 6 5 5 5 5 4 3 4 4 5 5 4 4 4 3 3 4 4 4 4 4 4 4 4 4 3 3 3 2
10 9 8 7 7 9 11 11 12 14 14 14 14 13 13 12 11 11 10 10 10 11 12 12 12 11 11 10 10 10 10 10 9 9 9 9 9 8 7 6 4 3 3 3 3 2 2 1 1 1 2 3 5 7 8 8 8 8 8 7 7 6 5 5 5 6 6 7 7 6 5 5 4 4 4 4 4 4 4 5 4 4 4 4 3 2 2
11 9 9 9 9 10 11 11 12 14 14 14 13 12 12 12 12 12 12 12 12 13 13 12 12 12 11 11 11 11 10 10 9 9 9 9 8 8 6 5 4 3 3 3 2 2 1 0 1 2 3 4 6 8 9 8 8 9 9 8 9 8 6 6 7 8 8 9 9 7 6 6 6 5 5 4 4 4 4 5 4 4 4 4 3 2 3
11 10 11 12 12 12 12 12 12 12 13 13 13 12 13 13 13 13 13 13 13 13 13 13 12 12 12 11 11 11 11 10 9 9 9 9 8 7 6 5 5 4 4 3 2 1 0 1 2 3 5 6 8 8 9 9 9 9 9 9 9 9 8 8 8 8 9 10 10 8 8 8 7 7 6 5 5 5 4 5 5 5 4 4 4 4 5
11 10 11 13 13 13 13 13 13 13 13 13 12 13 13 14 13 13 14 14 13 13 13 12 12 12 12 11 11 10 10 10 8 8 9 8 8 8 7 6 6 5 4 4 2 1 1 2 3 6 7 8 9 9 9 9 9 9 9 9 9 10 9 9 9 9 9 10 10 10 10 10 9 8 8 8 8 7 6 6 6 6 6 5 5 6 6
12 9 8 10 12 13 13 13 14 15 15 14 13 14 14 14 14 14 14 13 13 12 12 12 12 12 11 11 10 10 10 9 8 8 8 8 8 7 7 6 6 5 4 3 1 1 2 4 7 9 8 8 8 8 8 9 9 9 9 10 10 10 10 9 9 9 9 9 10 10 10 10 10 9 9 10 10 9 8 8 8 7 7 5 5 6 6
12 9 8 9 11 12 13 13 14 16 16 16 15 15 15 15 15 15 15 13 12 11 12 12 12 11 11 10 9 9 8 8 7 8 8 8 8 7 6 6 5 5 6 5 2 2 4 5 7 8 7 7 7 7 8 9 9 9 9 10 10 10 10 10 9 10 9 9 10 10 10 11 11 11 11 12 12 11 10 9 8 8 7 5 5 6 6
12 10 10 11 12 12 11 11 13 15 17 16 16 16 16 16 15 14 13 12 11 12 12 12 12 11 10 9 8 8 8 8 8 9 9 8 8 7 6 5 5 5 5 3 2 2 4 6 7 7 6 6 7 7 8 9 9 9 9 10 10 10 10 10 10 10 10 10 10 10 11 12 12 12 12 12 11 11 10 9 9 9 8 6 6 6 6
10 9 10 12 13 12 11 11 12 14 16 17 16 15 15 15 14 13 12 12 12 12 13 12 11 11 10 10 9 9 9 9 9 10 9 8 7 5 4 3 1 1 2 1 1 3 4 5 6 6 5 6 7 6 7 8 9 8 8 8 8 9 10 10 10 10 10 11 11 11 11 12 12 12 12 11 10 10 9 8 9 9 8 7 7 7 7
10 9 11 13 13 12 11 11 12 13 15 16 16 15 14 14 14 14 13 12 12 13 13 13 12 11 11 10 10 10 10 9 9 9 8 7 5 4 4 3 2 1 2 1 2 3 4 4 4 4 5 5 6 6 6 8 8 7 7 7 7 8 8 8 9 10 10 10 11 11 11 12 12 12 12 12 11 10 9 8 8 8 8 7 7 7 7
11 12 12 13 14 14 13 12 12 12 13 14 15 15 15 15 15 14 13 13 13 13 13 13 12 11 11 10 10 10 10 9 8 7 6 5 4 5 6 4 2 1 3 3 2 3 3 2 3 4 4 4 4 5 6 7 6 5 5 6 7 7 7 8 8 9 9 10 10 10 10 11 11 11 11 11 11 10 10 9 9 8 7 7 8 8 7
13 14 14 13 14 15 14 13 13 13 12 13 14 16 16 16 15 15 14 14 14 13 12 11 11 11 11 10 10 10 10 8 7 6 4 4 5 6 6 2 4 3 5 4 2 3 3 2 3 3 2 3 5 5 5 5 5 4 5 5 5 6 7 7 8 8 9 9 9 9 9 10 10 10 10 10 9 9 9 10 9 8 8 8 9 9 8
15 16 15 13 15 16 15 14 13 13 13 12 14 15 16 15 15 15 16 15 14 13 12 12 12 11 11 11 11 10 9 8 8 7 5 4 4 4 4 1 3 4 5 3 3 4 4 3 2 1 1 3 5 4 4 4 4 4 4 4 4 5 6 6 6 7 7 8 8 8 8 8 9 9 9 9 9 8 8 9 9 8 7 7 7 6 5
17 17 15 15 15 16 15 14 14 14 13 13 14 15 15 15 16 17 16 16 14 14 13 13 12 12 11 11 10 9 8 8 8 7 6 6 6 4 3 3 3 4 3 3 3 4 3 1 0 1 2 3 2 2 3 4 4 3 3 4 4 5 5 5 6 6 6 7 7 8 7 7 8 8 8 8 8 7 6 6 6 5 5 5 5 5 6
17 17 17 17 17 16 16 16 15 15 15 15 15 15 15 15 16 16 16 15 15 14 13 13 12 11 11 10 8 7 7 7 7 6 6 5 5 6 6 5 4 4 3 3 4 4 3 2 1 2 2 2 1 1 2 3 3 3 3 4 4 4 4 4 5 5 5 6 6 7 7 7 8 8 7 7 6 5 3 3 2 2 3 4 5 6 7
16 17 18 18 18 17 17 17 17 18 18 18 16 15 15 16 16 15 15 14 14 13 12 11 11 10 10 10 9 8 7 7 6 5 4 3 1 5 6 5 4 4 4 3 3 3 2 2 3 3 3 2 2 2 3 3 3 3 4 4 4 4 3 3 3 3 4 4 5 5 6 6 6 6 6 5 5 4 3 2 1 1 2 4 5 6 6
15 16 17 17 17 17 17 18 19 20 19 17 14 14 15 16 15 14 13 13 13 12 11 11 11 10 10 10 10 9 8 7 6 5 5 3 3 5 6 5 4 5 5 3 3 3 2 2 3 3 3 2 2 3 3 2 3 3 3 3 3 3 2 2 2 3 3 4 4 4 4 4 5 5 4 4 3 3 3 2 2 0 1 3 4 5 6
16 16 17 17 18 18 19 19 19 19 18 16 16 17 17 17 15 14 14 13 13 12 11 11 11 10 10 10 9 8 7 7 6 6 6 6 5 6 6 6 6 6 5 4 4 4 3 3 4 4 3 2 2 3 2 2 2 2 2 1 2 2 2 2 3 3 4 4 4 4 4 3 3 3 3 2 2 2 1 1 1 0 1 2 3 4 5
15 16 17 18 18 19 19 19 17 16 16 17 18 18 18 17 15 14 14 14 13 12 11 11 11 11 10 9 8 8 7 6 5 5 6 6 6 6 5 5 6 7 6 4 4 4 4 5 5 5 4 2 2 3 2 1 1 1 1 1 1 1 2 3 3 3 4 4 4 4 4 4 3 3 2 2 1 1 0 0 1 1 3 3 3 4 4
14 15 16 17 18 19 19 18 17 16 17 18 18 18 18 17 15 14 14 14 13 12 11 11 11 11 10 9 9 8 8 7 6 7 7 6 6 5 5 5 6 7 5 3 3 3 3 3 3 3 4 3 2 2 2 2 1 1 1 1 1 1 1 1 1 2 3 4 5 4 5 5 4 3 3 3 2 2 2 1 1 2 3 4 4 5 5
12 13 13 14 16 18 18 17 17 18 19 19 19 18 17 15 14 13 14 14 13 12 11 11 11 11 11 10 9 9 9 8 8 8 8 7 6 6 6 6 6 6 5 3 2 2 2 2 2 3 3 3 2 1 2 2 2 2 1 2 2 1 1 1 2 3 3 4 5 5 6 6 6 6 6 5 5 4 4 4 4 4 4 4 5 6 6
11 11 11 12 14 15 15 15 16 18 18 18 18 18 16 14 14 14 14 14 13 12 11 11 11 11 10 10 10 10 10 9 9 8 8 7 7 7 7 7 6 5 4 3 2 2 2 2 3 3 3 2 1 1 2 3 2 2 1 2 2 2 1 2 3 4 4 4 4 5 6 5 6 6 6 6 5 5 5 5 5 5 5 5 5 5 6
Wind_Direction
269 293 296 285 283 284 283 280 279 286 284 269 258 240 229 257 262 221 57 42 154 121 94 66 46 34 36 37 30 25 26 32 38 34 29 38 48 49 47 49 48 44 43 47 50 46 32 21 23 26 263 266 276 285 297 296 275 265 257 238 221 218 218 218 220 223 222 218 216 215 221 228 232 237 244 246 240 233 231 231 230 228 228 226 223 222 221
242 256 273 258 255 257 262 280 288 292 302 303 282 246 197 162 154 141 132 133 115 84 59 56 54 39 40 42 27 12 16 33 42 40 34 31 36 40 39 42 46 44 42 41 41 44 41 30 27 29 20 336 284 278 278 270 262 261 259 249 234 227 230 230 229 229 225 219 218 217 223 232 235 234 237 245 250 245 235 233 233 229 228 228 227 225 222
218 211 254 246 246 252 246 244 251 248 240 112 125 122 125 147 156 157 171 165 136 87 53 60 61 50 47 47 30 6 0 25 49 55 50 36 32 38 39 40 43 42 40 39 36 37 38 34 32 24 14 11 1 307 279 266 261 255 252 251 244 236 238 240 237 232 226 222 221 220 223 230 231 229 231 239 251 256 249 240 235 229 227 227 227 228 228
198 161 245 251 242 251 247 237 229 223 220 215 140 114 117 284 203 180 205 197 144 114 88 73 55 44 42 42 31 356 340 24 58 66 62 48 37 41 41 40 41 39 35 34 34 34 32 30 33 30 18 17 18 353 299 275 267 260 254 253 252 248 246 245 243 236 227 225 223 220 220 223 223 227 230 230 234 240 244 245 242 232 227 227 226 228 231
187 132 267 267 243 247 246 234 228 226 236 258 195 133 166 289 215 217 242 118 110 114 113 103 77 57 43 42 33 342 332 29 64 68 67 61 52 48 46 42 41 40 37 34 32 33 32 29 31 36 38 34 29 21 360 323 292 276 267 262 259 259 256 251 247 240 231 227 224 221 221 223 224 226 226 223 225 228 229 237 245 240 231 227 228 231 235
262 120 266 262 249 249 230 86 44 234 224 240 230 171 145 172 223 322 45 94 119 125 124 127 115 107 100 76 66 358 338 15 59 65 66 66 61 54 49 45 43 42 42 39 36 33 29 27 30 37 46 48 41 38 37 33 27 359 315 298 288 277 271 266 257 248 240 235 231 231 232 231 228 224 222 225 230 229 222 225 239 246 241 237 234 234 239
276 98 245 247 249 242 114 117 137 169 190 233 244 225 174 204 261 346 96 118 142 133 129 136 134 139 152 124 93 52 360 10 47 61 65 66 64 60 54 49 46 44 43 42 40 35 27 24 30 35 41 48 53 55 57 55 50 43 35 24 5 334 303 286 271 258 250 245 243 243 242 239 232 225 224 227 227 221 213 213 222 234 244 252 251 242 239
267 246 239 252 324 10 172 162 149 161 190 205 220 217 183 183 237 214 136 144 156 145 142 144 142 148 149 115 89 74 33 18 34 51 62 65 65 63 60 56 50 46 46 47 45 40 30 26 33 39 44 51 57 59 57 55 53 49 48 45 37 26 9 338 299 270 254 247 246 244 238 236 235 231 230 228 221 214 213 215 218 224 233 252 259 251 245
256 264 251 267 312 278 205 164 153 182 204 195 232 251 164 156 193 213 167 155 153 152 154 151 150 155 152 125 90 82 72 44 37 46 54 59 64 65 63 62 58 51 50 52 52 49 42 36 36 43 52 57 60 61 59 58 56 52 49 48 46 41 36 29 15 325 268 248 243 241 236 235 236 231 225 220 212 205 207 210 210 206 206 234 254 253 248
232 272 268 261 274 266 134 110 141 176 179 130 212 268 175 158 177 192 186 169 154 153 165 162 156 158 159 135 100 98 96 78 74 71 61 60 66 67 65 64 63 57 52 53 54 53 51 45 41 44 53 60 61 61 60 60 60 56 51 48 47 47 49 50 51 48 44 50 61 255 255 248 237 223 209 197 188 189 196 199 202 194 183 202 233 244 242
219 255 267 263 272 332 84 102 139 159 163 148 178 243 199 154 164 180 186 175 160 167 182 174 163 169 186 163 133 132 130 107 97 88 75 70 71 72 69 66 66 61 55 54 55 54 53 51 49 47 53 60 63 62 61 62 62 59 55 52 52 53 56 58 59 59 57 58 62 61 53 47 277 230 198 171 155 159 173 176 192 197 180 184 212 232 242
220 240 262 268 274 81 101 127 148 153 167 190 217 245 198 136 153 172 184 178 167 171 180 180 183 197 197 147 136 133 132 124 108 91 78 69 67 70 71 69 69 67 59 56 54 50 48 52 56 54 54 59 61 60 60 60 60 59 57 57 58 58 60 62 63 63 62 60 60 56 53 54 51 23 353 141 132 138 158 157 160 170 157 158 192 231 235
216 229 260 266 241 100 120 151 156 150 173 221 240 251 100 132 148 161 184 185 170 169 177 185 197 129 79 102 118 124 127 120 100 84 78 74 70 69 68 66 69 69 62 56 54 50 45 48 56 58 58 59 59 57 57 57 56 55 55 57 59 60 60 61 62 62 62 61 61 59 53 50 50 44 40 76 105 135 175 169 165 165 147 125 110 148 196
227 235 258 257 219 113 142 151 140 157 202 239 281 74 104 138 142 151 185 185 166 173 181 176 148 113 108 114 120 122 124 115 95 79 76 78 77 74 70 68 69 71 66 61 57 54 47 45 51 55 56 59 59 58 57 56 53 52 51 52 54 56 57 57 57 58 59 61 63 62 58 52 46 40 36 44 64 97 172 164 149 139 126 123 138 141 132
230 231 241 254 278 136 158 155 148 192 227 212 102 129 128 129 137 148 169 166 166 179 173 152 140 134 128 125 122 122 123 113 101 91 85 82 78 74 70 67 69 72 72 67 61 57 52 46 46 49 53 55 56 54 54 53 53 52 51 50 51 54 54 53 53 53 54 56 58 57 55 55 53 46 42 43 53 72 107 118 112 107 106 111 117 106 86
233 241 229 259 49 133 163 169 152 169 137 94 126 164 137 123 142 153 150 149 165 179 167 156 154 145 135 129 124 124 125 116 108 105 102 97 90 81 73 67 67 70 72 71 68 63 58 51 46 46 50 54 54 51 48 48 50 53 53 52 55 57 55 54 54 55 53 51 52 54 51 52 56 56 56 56 55 60 70 79 84 87 88 91 91 85 79
236 299 48 73 85 135 160 160 52 100 120 110 124 144 127 131 147 149 147 146 151 166 163 156 154 150 145 140 133 130 129 119 112 110 106 103 100 94 86 76 73 73 73 73 72 67 62 57 51 47 48 51 50 46 42 43 50 55 58 59 58 58 58 57 57 58 57 53 52 54 53 51 50 49 49 51 51 53 57 61 66 71 74 78 82 85 84
169 44 86 113 133 151 160 146 84 112 131 128 131 134 130 135 137 134 142 142 146 158 160 153 152 155 152 145 138 134 130 121 116 114 108 102 98 95 90 83 80 82 79 74 71 68 63 59 56 52 49 47 43 35 35 44 52 57 60 61 60 58 59 60 58 58 59 57 55 57 57 55 55 55 54 52 48 50 56 61 65 70 73 76 82 82 79
177 186 156 143 150 162 165 156 136 136 138 132 133 131 125 128 132 129 129 134 143 153 155 151 150 151 150 144 137 133 132 128 123 116 107 99 93 90 86 81 80 82 79 74 71 68 62 56 55 54 51 47 41 33 33 43 50 55 57 58 59 60 60 61 60 58 58 57 57 58 59 59 59 59 61 63 61 56 55 58 64 71 74 74 74 74 70
178 142 131 133 139 153 162 161 153 151 148 136 124 121 125 128 128 126 127 135 144 149 150 149 148 147 146 142 139 136 135 132 126 119 112 108 103 97 90 83 80 80 77 74 73 69 64 59 56 55 52 48 43 38 36 39 43 50 53 54 57 60 60 60 59 57 56 58 59 61 64 65 64 61 60 61 64 65 64 61 60 65 70 72 70 67 61
169 118 133 146 149 154 168 173 160 151 150 140 133 134 136 135 133 131 134 140 146 149 151 149 149 150 149 145 145 143 137 133 133 129 122 117 112 106 97 88 82 80 78 78 75 71 67 63 60 59 55 49 44 43 39 37 40 46 51 54 56 58 58 57 57 57 55 56 60 65 70 72 73 72 71 69 67 67 68 69 69 71 74 75 75 72 66
215 190 168 169 173 173 176 175 162 152 150 146 145 146 145 144 144 142 141 142 144 149 153 155 155 154 151 151 151 147 143 142 140 135 129 126 122 118 112 103 92 82 77 77 76 72 68 66 63 63 60 52 47 45 41 38 40 42 43 47 51 51 50 47 43 45 52 54 54 60 71 78 80 79 78 76 75 73 71 69 69 72 76 79 83 86 82
250 184 168 177 206 199 168 166 163 157 155 154 153 153 150 150 151 151 150 148 148 152 157 162 163 157 153 157 158 153 151 150 144 140 140 136 131 131 132 123 105 91 79 74 73 69 66 65 63 62 63 60 54 50 46 42 42 42 39 39 41 41 42 39 30 27 37 45 48 53 61 72 84 87 82 76 72 71 72 72 71 72 75 77 79 81 80
290 150 164 177 212 184 159 162 160 157 159 161 157 155 154 155 157 160 160 156 154 156 159 163 164 159 156 161 162 158 156 157 156 154 150 141 136 140 142 135 119 101 87 79 77 74 69 66 62 60 61 60 56 55 53 48 47 47 43 40 38 34 33 31 25 22 28 33 36 44 52 57 69 83 90 86 78 71 70 73 75 78 82 83 80 78 76
128 152 154 157 157 143 152 155 154 156 163 163 157 155 156 157 161 164 165 163 162 161 160 160 161 160 160 162 163 160 159 160 161 160 156 151 151 154 155 155 146 116 92 83 84 82 77 72 69 65 63 59 53 51 53 52 53 53 49 46 44 38 31 24 20 21 25 25 25 31 37 39 44 50 61 81 88 86 81 78 78 80 84 86 82 76 72
99 133 135 130 122 135 149 153 154 161 165 161 156 156 153 154 161 165 167 169 168 166 165 164 162 163 165 164 163 162 161 159 159 165 173 173 171 172 173 165 154 129 102 90 86 84 81 77 71 65 62 55 45 40 42 45 48 50 50 51 51 45 37 29 22 20 18 14 12 13 11 9 3 359 18 38 66 98 108 103 95 86 80 78 72 66 63
118 142 146 143 140 152 164 165 161 162 165 161 157 154 151 151 156 160 161 165 167 167 168 168 165 166 170 170 168 166 163 160 164 176 188 186 180 178 173 159 147 125 99 91 89 87 83 73 65 60 53 44 38 34 32 33 34 36 37 38 47 50 43 35 26 15 9 4 357 347 343 337 317 304 305 269 226 235 90 106 107 93 79 70 57 48 47
151 160 166 172 171 170 173 169 161 160 163 162 157 153 151 152 154 156 156 156 159 161 162 164 165 166 170 173 172 170 168 169 175 183 187 184 175 165 155 146 132 104 89 88 89 90 82 67 62 64 56 42 33 29 25 19 12 8 8 2 353 10 30 24 12 4 2 356 343 331 322 307 296 290 280 258 238 209 177 176 181 115 84 83 51 32 31
176 173 171 162 160 160 158 157 159 161 163 163 159 156 156 157 157 158 156 156 158 159 158 161 166 168 169 172 173 173 173 176 179 179 171 163 158 150 142 134 119 106 102 99 94 93 88 70 59 63 57 40 27 22 14 1 348 340 334 327 322 329 349 357 351 343 339 333 328 326 312 291 280 268 255 255 255 235 222 220 220 242 275 258 236 295 32
183 179 165 115 140 154 155 158 164 166 166 165 164 163 164 163 162 160 157 158 161 161 158 161 165 166 168 171 174 175 176 175 172 166 158 152 148 144 141 140 138 136 134 125 112 108 100 69 48 44 34 15 3 1 356 346 338 327 308 296 296 296 300 315 323 317 312 307 304 304 293 278 270 263 253 247 240 237 239 234 223 230 251 272 270 268 359
171 173 167 156 162 169 167 164 166 167 167 168 169 169 169 169 166 162 160 161 163 160 158 160 162 161 163 166 167 168 168 163 159 155 151 149 151 152 155 161 165 159 151 148 148 156 150 35 339 351 360 346 339 339 337 333 329 321 309 301 293 278 274 284 289 286 295 302 300 296 291 280 271 269 264 255 245 239 237 229 224 232 244 254 265 282 318
158 164 167 171 179 179 171 166 167 169 169 172 175 175 173 172 169 164 163 166 165 161 160 161 161 158 157 158 159 161 161 159 159 159 158 159 162 164 167 176 181 175 169 172 178 184 188 232 291 326 333 322 320 321 319 318 319 316 311 310 304 290 283 286 279 271 277 285 284 284 288 286 278 268 264 262 262 258 248 238 230 229 237 242 244 254 274
159 166 174 180 182 177 171 169 173 173 172 176 179 178 175 174 171 166 166 168 166 164 165 167 164 161 159 159 161 164 164 164 167 170 170 169 170 171 177 186 187 181 178 175 172 172 174 228 323 328 323 315 313 313 311 310 310 307 306 307 304 298 291 284 275 270 270 272 270 270 277 282 280 273 265 260 261 262 260 254 240 220 218 228 219 201 211
178 181 181 180 181 178 173 173 175 174 174 178 180 179 178 177 172 167 167 169 168 168 171 171 167 165 166 168 170 172 174 175 178 181 180 180 177 175 177 175 167 163 158 148 148 159 82 21 342 323 319 314 309 307 307 305 302 300 300 301 299 296 292 283 272 267 268 268 267 265 263 264 267 268 267 264 261 258 258 258 250 232 222 211 179 168 190
200 198 186 183 187 183 174 171 172 172 174 178 180 179 179 177 170 166 169 173 174 173 174 173 172 172 174 177 180 183 185 189 192 189 185 181 173 167 166 164 162 161 154 138 125 66 11 343 302 298 304 306 303 302 303 302 299 297 295 294 292 290 289 285 278 274 273 272 270 264 258 258 261 263 262 263 260 254 250 253 251 244 233 211 173 160 172
209 206 186 181 188 184 174 171 174 174 174 178 180 177 176 175 171 169 172 176 177 175 173 173 174 177 180 184 189 194 198 201 200 189 178 172 167 167 172 174 173 181 195 190 170 2 337 304 291 294 302 305 301 299 298 297 297 296 293 288 285 283 281 279 277 275 274 274 273 268 264 264 262 257 255 259 259 255 252 251 250 248 241 218 182 167 168
204 198 177 170 177 177 173 173 176 176 175 177 177 175 173 173 172 171 173 176 175 171 171 173 177 181 185 190 195 200 200 195 185 174 167 164 163 166 175 183 191 219 240 245 254 321 314 306 307 311 313 308 304 303 302 299 299 297 288 279 275 275 277 277 276 274 272 272 273 271 267 263 259 256 256 260 262 261 257 251 247 246 241 220 195 187 184
194 190 178 170 169 169 166 167 172 175 176 176 175 174 173 171 169 170 172 172 167 163 165 169 173 175 176 178 181 182 176 169 164 160 158 161 168 180 197 214 232 251 266 282 324 322 311 318 326 326 317 307 307 312 312 311 312 307 293 282 278 277 277 276 276 275 275 274 274 274 270 266 263 261 261 261 262 263 260 252 244 242 238 221 207 207 206
184 180 175 169 163 158 154 156 165 173 176 174 171 168 166 163 160 160 161 159 157 156 156 156 157 159 160 161 163 162 159 157 158 157 158 163 173 186 197 201 215 326 347 359 327 304 310 321 323 314 306 307 311 311 312 316 318 311 298 290 289 284 279 278 279 278 277 277 276 276 275 272 271 269 266 263 262 262 258 249 242 240 238 229 219 218 222
179 174 170 165 159 153 151 153 158 165 171 171 164 157 154 154 154 153 151 150 151 153 151 150 152 155 158 161 162 157 153 155 157 156 157 159 162 180 207 203 183 334 329 322 301 298 306 316 314 306 304 308 309 309 312 318 319 312 301 298 296 290 286 285 283 280 279 279 277 275 274 274 274 274 271 267 262 257 251 244 236 233 235 234 227 221 221
177 174 170 165 161 159 157 154 151 153 159 163 159 154 154 156 156 153 150 147 148 151 151 153 156 159 160 163 161 152 147 150 150 150 160 171 188 233 247 229 174 206 261 265 275 289 296 307 303 294 295 303 307 310 313 315 314 308 301 299 298 296 295 294 290 287 287 286 283 280 280 279 279 278 276 273 267 259 252 243 234 230 234 236 232 224 217
176 175 171 167 164 163 159 153 148 147 149 153 154 154 157 158 155 151 148 146 146 148 150 150 152 154 156 156 152 145 145 147 147 149 172 208 231 250 255 193 133 177 241 254 260 270 270 267 269 270 284 311 314 310 306 304 304 303 302 305 306 303 303 304 303 299 298 297 295 292 289 288 286 284 280 276 271 262 253 245 238 236 238 238 236 233 221
176 175 173 169 165 162 158 154 151 147 145 146 150 153 155 154 149 145 144 144 146 148 147 145 146 149 151 152 152 151 153 157 159 166 184 201 213 242 260 189 155 202 239 245 247 254 252 245 248 270 303 304 302 297 285 279 287 297 305 309 310 308 310 315 316 311 309 311 311 309 305 301 298 295 289 282 277 269 258 249 244 241 235 231 230 225 209
175 175 173 168 162 158 156 154 153 149 145 146 149 149 148 148 146 146 146 147 148 149 149 149 152 155 157 160 165 168 168 170 172 178 186 188 186 192 206 201 197 211 225 228 238 246 244 225 139 354 318 302 304 309 291 282 285 293 298 301 307 310 310 311 312 314 316 318 318 319 321 320 316 313 308 300 293 284 268 253 246 237 227 221 214 199 191
175 175 173 166 160 158 159 159 157 152 147 143 144 146 146 146 147 148 148 148 149 151 153 155 157 159 162 166 169 170 172 176 179 185 198 208 193 168 166 185 208 214 210 219 230 233 234 244 257 266 281 301 356 9 321 299 295 297 297 301 309 314 312 310 312 315 317 317 317 320 323 322 321 322 323 322 322 318 300 279 258 219 214 213 200 184 180
175 174 170 165 161 161 161 157 151 146 142 140 141 144 146 146 146 148 149 149 150 152 155 156 156 159 161 161 157 156 162 170 178 188 207 230 181 144 154 176 198 193 188 197 210 213 226 263 276 276 288 309 326 325 312 301 298 303 307 309 310 312 320 332 334 334 339 343 340 337 334 331 332 337 340 344 353 1 355 342 336 181 193 196 188 180 179
172 170 167 164 160 156 152 146 143 144 146 146 145 147 148 148 147 147 148 148 148 148 149 151 153 155 157 157 157 160 164 166 171 183 195 191 155 150 162 173 173 173 183 200 206 203 207 228 250 270 295 320 314 296 287 282 287 299 308 314 316 329 354 3 350 354 9 8 356 348 349 349 351 355 356 354 2 12 12 3 352 307 206 201 201 203 205
169 166 163 159 154 149 146 146 148 151 154 153 149 148 150 149 147 145 145 146 146 146 147 148 151 153 155 160 165 172 177 180 184 188 190 184 168 159 163 169 173 181 198 212 210 210 228 247 251 260 279 304 287 270 263 263 281 288 295 313 328 342 357 346 334 343 353 347 341 347 355 353 352 354 353 352 360 10 21 51 58 54 206 197 199 206 212
166 162 157 154 152 150 151 154 155 156 154 150 146 146 148 147 145 146 149 149 149 150 151 152 153 155 158 164 170 175 182 191 191 177 171 173 170 163 163 172 184 195 206 209 197 205 248 280 273 253 244 249 262 259 250 238 253 264 266 299 314 322 342 346 343 342 336 331 333 339 338 332 337 346 343 335 339 339 302 208 187 206 205 199 198 202 208
161 158 157 158 158 159 161 161 159 156 153 149 146 147 149 149 150 153 156 157 157 158 159 158 159 161 164 168 172 173 172 170 163 155 155 162 168 166 164 168 178 189 201 206 193 204 246 281 271 225 219 230 243 242 235 227 213 205 213 246 265 291 24 18 319 300 321 331 328 320 314 315 322 320 304 292 291 286 268 260 255 225 208 206 214 220 218
160 160 161 162 161 161 162 159 154 150 148 146 145 148 152 154 155 158 160 162 163 164 163 162 163 166 168 168 169 168 165 159 155 153 155 158 161 165 168 167 169 176 187 202 206 215 232 230 186 185 206 225 225 204 192 194 193 192 210 242 253 254 241 256 267 285 319 331 318 306 303 303 302 299 294 289 286 279 270 268 268 260 248 242 241 240 235
154 151 149 148 150 150 149 146 143 142 142 144 146 151 155 156 156 158 162 166 168 169 168 166 164 165 169 169 165 161 160 158 157 158 160 161 161 164 168 170 170 172 181 195 206 210 200 179 171 172 182 195 177 144 147 159 169 176 183 203 231 257 260 264 287 305 314 309 299 299 302 299 294 291 289 286 281 276 274 276 277 271 261 253 249 247 244
Height
798 796 797 796 798 800 800 801 801 799 798 799 803 807 807 815 829 827 817 814 814 813 815 819 820 818 816 815 814 811 810 809 808 807 806 805 805 804 803 802 802 802 802 801 802 802 802 801 800 799 799 799 799 799 800 801 803 804 805 804 802 802 803 803 804 805 807 809 810 812 814 815 817 818 820 821 822 822 823 824 825 825 826 827 827 828 829
799 798 798 797 798 802 803 803 802 800 800 799 800 803 802 808 817 818 816 818 818 816 817 819 821 820 817 816 816 814 814 812 811 810 810 810 810 808 807 806 805 805 805 805 805 804 803 802 800 799 799 799 799 799 800 801 802 803 804 804 801 800 801 802 803 804 806 807 808 810 811 812 814 816 819 822 822 821 821 822 823 824 824 825 825 826 827
802 799 799 798 799 802 804 805 803 800 801 802 802 804 806 809 814 814 813 817 819 817 816 817 819 819 817 817 818 820 820 816 812 812 812 814 815 813 811 810 808 808 807 807 806 805 804 803 801 799 798 797 798 798 799 800 801 801 802 801 800 799 799 800 802 803 804 805 807 808 809 810 812 814 817 820 821 821 821 821 821 822 823 823 824 824 825
805 799 801 801 798 800 803 804 803 800 802 804 804 805 806 807 811 815 815 816 817 815 814 817 819 819 820 820 821 825 825 819 815 814 814 817 818 815 814 812 810 809 808 807 807 806 805 804 802 801 800 799 799 799 800 800 800 800 800 799 799 799 799 800 801 801 802 803 805 806 807 808 810 812 814 816 818 818 819 820 820 820 820 821 821 822 823
806 800 802 801 800 809 813 805 800 799 801 803 803 805 805 804 808 814 812 810 811 813 814 819 822 823 824 824 825 828 828 822 817 815 814 816 817 816 815 814 812 811 810 809 808 807 806 806 804 803 802 801 800 799 800 800 799 799 799 798 798 798 798 799 800 800 801 802 803 804 805 806 808 809 810 812 813 814 816 817 818 818 818 818 819 820 820
809 803 802 804 811 821 817 803 796 798 802 804 805 807 805 803 805 806 804 805 809 811 814 820 823 825 826 825 824 828 829 824 819 816 815 816 816 815 816 815 814 812 811 810 809 808 807 807 806 805 804 803 802 801 801 801 800 799 799 798 798 798 798 798 799 799 799 800 801 802 803 804 806 806 808 809 810 811 813 815 816 817 817 817 817 818 818
806 803 807 820 826 817 805 798 796 797 799 800 803 805 804 804 804 803 807 812 812 810 815 820 822 824 825 821 820 824 828 826 821 818 816 815 815 815 816 815 815 814 812 811 810 810 809 808 806 805 805 804 803 803 802 801 801 800 799 798 797 797 797 797 797 798 798 799 800 801 802 803 804 804 805 806 807 809 810 812 813 814 816 816 816 816 816
807 809 816 825 819 801 793 797 798 798 800 801 805 808 806 804 805 805 810 815 813 811 815 818 820 822 821 818 819 822 825 826 824 820 817 815 814 814 815 815 815 815 814 813 813 812 811 809 808 807 806 805 804 803 802 802 801 800 799 798 797 797 796 796 796 796 797 798 799 800 801 802 803 804 804 805 806 807 808 809 810 810 813 816 817 816 816
809 811 812 809 805 800 796 798 798 797 798 799 803 808 806 802 803 804 807 810 811 811 814 816 817 817 817 820 822 821 823 825 824 821 817 814 814 814 814 815 816 816 816 815 815 814 813 811 810 808 808 806 805 804 803 803 802 802 801 800 800 799 799 798 796 796 796 796 797 799 800 801 802 803 803 804 805 805 805 806 807 808 810 814 817 816 815
805 809 811 809 813 814 805 797 794 792 792 793 795 803 806 801 799 802 805 808 811 812 813 814 814 814 817 823 824 823 822 823 822 822 819 816 815 815 816 816 817 817 817 817 816 816 814 813 812 811 810 809 807 806 805 804 804 804 804 803 803 802 801 800 798 797 797 797 797 799 800 800 801 801 801 801 802 802 803 804 806 806 807 811 815 816 814
804 810 815 814 815 812 801 795 793 791 791 791 794 807 811 800 796 801 803 806 812 814 813 812 812 817 822 824 822 822 823 822 822 821 819 817 817 817 818 818 818 818 819 818 817 817 816 815 814 813 812 811 809 808 808 807 807 806 806 806 805 804 803 802 800 800 800 800 799 800 800 800 800 801 800 799 798 800 802 804 805 806 806 808 812 814 814
801 807 811 805 803 801 796 793 792 791 789 790 804 824 821 800 795 801 802 804 810 811 812 812 813 816 819 817 818 820 821 822 821 820 819 819 818 818 819 820 820 820 820 819 818 817 816 816 815 815 814 813 812 811 811 810 809 809 809 809 807 806 805 805 803 803 802 802 801 801 800 800 800 803 803 800 798 799 802 804 805 806 805 807 810 812 812
798 806 809 802 796 795 793 791 790 788 791 800 814 824 814 799 797 801 800 802 805 806 810 812 812 813 813 813 816 818 819 820 820 819 820 821 820 821 822 821 821 821 820 820 819 819 818 817 817 817 816 815 815 814 814 813 812 812 812 811 810 809 808 806 806 805 805 804 803 802 802 803 804 805 804 802 800 801 803 803 803 804 804 805 808 810 810
797 801 805 804 800 795 791 791 789 790 800 812 813 806 798 797 800 800 800 802 803 805 808 810 811 813 814 815 817 818 819 820 820 821 822 822 823 823 824 823 822 822 822 822 821 821 820 819 818 818 818 817 817 816 816 815 815 815 814 814 813 811 810 809 808 808 807 807 806 806 806 807 807 807 806 804 803 803 804 804 802 802 803 805 808 810 810
798 803 808 811 809 797 789 792 795 796 801 807 803 798 797 798 798 800 802 802 802 805 808 809 811 813 815 816 817 817 818 818 820 822 824 824 825 825 825 825 824 823 823 823 823 823 822 821 821 820 819 819 818 818 818 817 818 817 816 816 815 814 813 812 811 811 810 809 809 809 809 809 809 809 808 807 806 806 806 805 802 801 802 805 807 809 810
799 806 807 805 800 791 787 791 795 794 794 794 795 797 799 798 798 800 802 803 804 804 806 809 812 813 816 818 818 818 818 818 820 823 824 825 826 827 826 826 825 825 825 825 825 825 824 824 823 822 822 821 821 820 820 820 820 819 818 818 817 817 816 816 815 814 813 812 811 811 812 812 811 811 811 810 809 808 806 805 802 801 802 805 807 808 810
791 795 794 791 789 786 787 790 791 791 790 790 792 794 795 797 799 799 800 804 806 804 805 809 811 813 815 817 818 819 819 819 821 823 824 826 826 827 827 828 827 827 827 826 826 826 825 826 825 824 823 823 823 823 823 822 822 821 820 820 819 819 818 818 817 817 816 815 814 814 814 813 812 812 811 810 810 809 808 807 805 804 805 807 808 810 812
787 789 788 788 788 788 788 789 790 790 790 790 790 792 794 797 797 797 800 803 804 804 805 808 812 814 814 814 817 819 819 820 822 824 825 826 826 827 828 828 828 828 828 828 827 827 827 827 827 826 825 825 825 825 825 824 823 823 822 822 821 821 820 820 819 819 818 818 817 816 816 815 814 813 813 812 812 812 812 811 811 810 811 811 812 813 813
792 793 789 787 789 789 788 790 791 791 791 791 791 792 794 796 796 798 800 801 803 804 804 806 811 813 813 814 817 818 819 821 823 824 826 827 827 828 829 829 829 829 829 829 829 829 829 829 828 827 827 827 827 827 826 826 825 824 824 823 822 822 822 821 821 821 820 820 820 819 818 817 817 816 815 815 815 815 815 815 815 814 814 814 814 814 815
791 791 788 786 788 788 787 788 791 791 792 793 792 792 794 796 797 798 800 801 803 804 805 807 810 812 813 815 818 819 821 822 823 825 827 828 828 830 830 830 831 831 830 831 831 831 831 830 830 829 829 829 829 829 828 827 827 826 825 825 824 824 824 823 823 823 822 822 822 821 821 820 819 819 819 819 818 818 818 818 817 817 817 816 816 816 815
789 790 789 789 791 792 790 788 788 789 791 793 794 795 795 797 799 800 801 802 803 804 806 808 810 812 814 816 817 820 822 823 825 827 828 829 829 830 831 831 832 832 832 832 832 832 832 832 831 831 831 831 831 830 830 829 828 828 827 826 826 826 825 825 825 825 824 824 824 824 824 823 822 822 822 822 822 821 820 820 819 819 818 818 818 818 817
790 787 786 788 790 791 791 789 788 789 790 792 795 796 797 798 800 801 803 804 804 805 807 808 810 813 815 816 818 821 822 824 826 828 828 830 830 830 831 832 832 832 833 833 833 833 833 832 832 833 833 833 833 832 832 831 830 830 829 828 827 827 826 826 826 826 825 826 826 825 825 825 825 825 824 824 823 823 822 822 821 820 820 820 820 819 819
782 777 777 780 782 783 784 785 787 789 790 792 795 797 798 799 800 801 803 805 806 807 808 809 811 813 815 817 819 820 822 825 827 828 829 830 830 831 832 832 832 833 833 833 833 833 833 833 833 834 834 834 834 833 833 832 832 831 830 830 829 828 828 828 828 827 827 827 827 827 827 827 827 827 827 826 825 825 824 824 823 822 822 821 821 821 821
776 773 773 777 778 779 780 782 785 788 789 792 795 796 797 799 800 802 804 805 807 808 809 810 812 814 816 818 819 820 823 825 827 828 829 830 830 831 832 832 833 833 833 833 833 833 834 834 834 834 834 835 835 834 834 833 833 832 832 831 831 830 830 830 829 829 828 828 828 828 828 827 827 827 827 827 827 827 826 825 825 824 824 823 823 822 822
775 772 772 775 777 777 778 781 784 787 789 791 793 795 797 798 800 802 804 805 807 808 810 811 813 815 816 818 819 821 823 825 826 828 829 830 831 831 832 832 833 833 833 833 833 833 833 834 834 834 835 835 835 835 834 834 833 833 833 832 832 832 831 831 830 830 829 829 828 828 828 828 828 827 827 827 827 827 828 827 827 826 825 825 825 824 823
773 772 772 776 778 778 779 782 786 788 789 790 793 795 797 799 801 802 804 806 807 809 810 812 813 815 817 818 820 821 823 824 827 828 828 829 830 830 831 832 832 832 832 833 833 833 834 834 834 835 835 835 835 835 834 834 834 833 833 833 833 832 832 831 831 831 830 829 829 829 828 828 828 827 827 826 826 827 827 826 827 827 827 826 826 825 825
773 772 774 779 782 782 781 782 785 787 788 790 793 795 797 800 802 802 804 806 808 809 811 812 813 815 817 819 820 821 823 825 826 827 828 828 829 829 830 831 831 832 832 832 833 834 834 834 834 834 835 835 835 835 835 834 834 834 833 833 833 832 832 832 831 831 831 830 829 829 828 828 827 827 826 826 826 826 826 826 826 826 827 827 827 826 826
774 773 774 777 781 782 780 780 782 786 788 790 793 795 797 799 801 802 804 806 808 809 811 813 814 815 817 819 820 821 823 824 826 826 827 827 828 830 831 831 831 832 832 833 834 834 834 835 835 834 835 835 835 834 835 834 834 834 834 833 832 832 832 832 831 831 831 830 830 829 829 828 827 827 826 825 825 825 825 826 826 826 827 827 827 827 826
774 774 774 775 775 776 778 781 783 786 788 790 792 795 797 799 800 802 804 805 808 809 811 812 814 815 817 818 819 820 822 823 825 825 826 828 829 830 831 831 832 832 833 834 834 835 835 835 835 835 835 835 834 834 834 834 833 833 833 833 832 832 831 831 831 831 830 830 829 829 828 827 827 826 825 825 824 824 824 824 825 825 826 826 826 826 826
773 774 776 776 775 776 779 782 784 786 788 789 792 794 796 798 800 801 803 805 807 809 810 812 814 815 816 818 819 820 822 823 824 825 827 828 829 830 831 832 832 832 833 834 835 835 836 835 835 835 835 835 834 834 833 833 832 832 832 832 832 831 831 831 831 830 830 830 829 828 828 827 826 825 825 824 824 824 823 823 824 824 825 825 825 825 825
772 774 776 777 777 778 779 781 783 786 787 789 791 793 795 797 799 801 803 804 806 808 810 812 813 815 816 817 819 820 821 822 824 825 827 828 829 830 831 832 832 832 833 834 835 835 835 835 835 835 835 835 835 834 833 833 832 831 831 830 830 830 830 830 830 830 829 829 828 828 827 826 825 825 824 823 823 823 823 823 823 823 823 823 824 824 825
773 775 777 778 778 778 779 781 783 785 787 788 791 792 793 796 798 800 802 804 805 807 810 811 813 814 816 817 819 820 821 823 824 825 827 828 829 830 831 832 832 832 833 834 835 835 835 835 835 835 835 835 835 834 833 833 832 831 830 829 829 828 828 828 829 829 828 827 827 827 826 826 825 824 824 823 822 822 823 823 823 823 823 823 823 824 825
773 776 777 778 778 778 780 781 782 784 786 787 789 791 792 794 796 798 801 803 805 807 809 811 812 814 816 817 819 820 821 823 824 825 827 828 829 830 831 832 832 833 833 834 834 835 835 835 835 835 835 834 834 834 833 833 832 831 830 829 828 828 827 827 828 827 827 826 825 825 825 826 825 823 823 823 822 822 822 822 822 823 823 823 823 825 826
767 769 771 772 773 774 777 779 780 782 784 786 788 790 792 793 795 797 800 802 804 806 809 810 812 814 815 817 819 820 821 822 823 824 826 827 828 830 831 831 832 833 833 834 834 834 834 835 834 834 834 834 834 833 833 832 832 831 830 829 829 828 827 826 826 826 825 825 824 824 824 825 824 823 823 822 822 822 822 822 822 822 822 823 824 825 825
763 763 765 767 768 769 771 774 777 779 782 785 787 789 791 793 795 797 800 802 803 805 808 809 811 813 815 816 818 819 820 821 822 823 825 826 828 829 830 831 832 832 833 833 834 834 834 834 834 833 833 833 833 833 832 832 831 830 830 829 829 828 827 826 825 825 824 824 823 823 823 823 822 822 822 822 821 821 821 821 821 821 821 823 824 824 825
762 762 764 766 767 768 770 773 775 777 780 783 786 788 790 793 795 797 800 801 803 805 807 809 811 812 814 815 817 818 819 820 821 823 825 826 827 829 829 830 831 832 832 833 833 833 834 834 832 832 832 832 832 832 831 831 831 830 829 829 828 827 826 825 824 824 823 823 822 822 822 821 821 821 821 821 820 820 820 821 821 821 821 822 823 824 825
761 762 764 765 767 768 771 772 774 777 779 782 785 788 790 792 794 797 799 801 802 804 806 808 810 812 813 815 816 817 818 820 821 823 825 826 827 828 829 830 831 831 831 831 832 833 834 833 831 831 832 831 831 831 830 830 829 829 829 828 827 826 825 824 823 823 822 821 821 821 821 820 820 820 820 820 819 819 819 820 820 820 821 822 822 823 824
760 762 764 766 767 769 771 773 775 777 779 782 785 787 790 792 794 796 798 800 802 804 806 808 809 811 813 814 816 817 819 820 822 823 825 826 827 828 829 829 830 830 830 830 831 833 833 832 831 831 831 831 830 830 829 828 828 827 827 826 825 824 823 823 822 821 821 820 820 820 819 819 818 818 818 818 818 818 818 819 819 820 820 821 822 822 822
760 762 763 765 766 769 771 773 775 776 778 781 784 787 789 792 794 796 798 801 802 804 805 807 809 811 813 814 816 817 819 821 822 823 825 826 827 828 829 829 830 831 830 831 832 832 832 832 832 831 831 831 830 829 829 828 827 826 826 825 824 823 823 822 821 820 820 820 819 819 818 818 817 817 817 817 817 817 818 818 819 819 819 820 821 821 821
759 761 763 764 766 769 770 772 774 776 778 781 784 786 789 791 794 796 798 800 802 803 805 806 808 810 812 814 816 817 819 821 822 824 825 826 827 828 828 829 830 831 831 831 831 832 832 831 831 831 831 830 829 829 828 828 827 826 825 824 823 822 822 821 820 820 819 819 818 818 817 816 816 816 816 816 816 817 817 817 818 818 819 820 820 821 821
757 760 762 763 765 768 770 772 774 776 778 781 783 786 789 791 793 795 798 799 802 803 805 806 808 810 812 814 816 817 820 821 822 824 825 826 827 827 827 827 829 831 831 831 831 831 831 831 831 831 830 830 829 828 828 827 826 826 825 824 823 822 821 820 820 819 818 818 817 817 816 815 815 815 815 815 816 816 816 816 817 817 818 819 819 820 821
755 758 760 762 765 767 769 772 774 776 778 781 783 786 788 791 793 795 797 799 801 803 805 806 808 810 812 814 816 818 820 821 822 824 825 825 826 826 826 826 828 830 831 831 831 831 830 831 831 830 830 829 829 828 827 827 826 825 824 824 823 822 821 821 820 819 818 818 817 816 815 815 815 814 815 815 815 815 815 815 816 817 817 818 818 819 820
754 756 758 761 763 765 768 771 773 775 778 781 783 786 788 790 792 795 797 799 801 803 805 807 809 810 812 814 816 818 820 821 822 823 825 826 827 827 827 827 828 829 830 830 830 830 830 830 830 829 829 829 828 828 827 826 826 825 825 824 823 822 822 821 820 819 818 818 817 816 816 815 815 814 814 814 815 815 815 815 815 816 817 818 818 819 820
752 754 756 759 762 764 767 770 772 775 778 780 783 786 788 790 792 794 796 799 801 803 804 807 809 810 812 814 815 817 819 820 821 822 823 824 826 827 827 828 828 829 829 830 829 829 829 829 829 828 828 828 828 827 826 825 825 824 824 824 823 823 822 822 821 820 820 819 818 817 817 816 816 815 815 814 814 815 815 816 816 817 818 818 819 819 821
750 752 754 757 760 763 765 768 771 774 777 780 783 785 788 790 792 795 796 799 801 803 804 806 808 810 812 813 815 816 818 819 820 821 821 821 821 823 825 827 828 828 828 828 828 828 828 828 828 828 828 827 827 826 826 825 824 824 823 823 823 823 822 822 822 821 820 820 819 819 818 818 817 816 816 816 816 816 816 816 817 818 818 819 820 821 821
748 751 753 756 758 761 764 767 769 773 776 779 782 786 788 790 793 795 797 799 801 802 804 806 808 809 811 813 814 816 818 819 820 821 821 820 820 822 823 825 826 826 827 827 828 827 828 828 827 827 827 826 826 826 825 825 824 824 823 823 822 822 822 822 822 821 821 821 821 820 820 819 818 818 818 818 817 817 817 817 817 818 819 820 820 821 822
747 749 752 754 757 760 763 766 769 772 775 778 781 784 787 790 793 795 797 799 801 802 804 806 807 809 811 812 814 815 816 817 819 820 821 821 821 822 823 824 825 825 826 826 826 827 827 827 827 827 826 826 826 825 825 825 824 824 823 823 823 822 822 822 822 822 822 822 822 821 821 820 820 820 819 819 819 819 819 818 818 818 819 820 820 821 822
746 748 750 753 756 759 762 765 768 771 774 776 779 783 786 790 792 794 797 799 801 802 804 806 807 809 811 812 813 814 815 815 816 818 820 821 821 822 822 823 823 824 825 825 825 826 826 826 826 826 826 825 825 825 824 824 824 823 823 823 823 822 823 823 822 822 822 822 822 821 821 821 821 821 820 820 820 820 820 820 820 820 820 820 821 822 822
745 747 750 753 756 758 761 764 767 770 773 776 779 782 785 788 791 794 796 798 800 802 804 806 807 809 810 811 812 813 814 815 815 816 818 820 820 821 821 822 823 823 824 824 825 825 825 825 825 825 825 825 825 824 823 823 823 823 823 823 823 823 823 823 823 822 822 822 822 822 821 821 821 821 821 821 821 821 821 821 821 821 821 821 822 822 823
745 747 749 752 754 757 759 762 764 768 771 774 778 781 784 787 790 793 795 797 799 801 803 805 807 808 809 811 812 813 814 815 816 817 818 819 820 820 821 821 822 823 823 823 823 824 824 824 824 824 824 824 824 824 823 823 822 822 823 823 822 822 823 823 823 823 823 822 822 822 821 821 821 821 821 821 821 821 821 821 821 821 822 822 822 822 823
746 747 749 751 753 756 758 761 763 767 770 773 777 780 783 786 789 791 794 796 798 800 801 803 805 807 808 810 811 812 814 815 816 817 818 819 819 820 820 821 821 822 822 822 822 823 823 823 823 823 823 823 823 822 822 822 822 822 822 823 822 822 822 823 822 822 822 822 822 822 821 821 821 821 821 821 821 821 821 821 821 821 821 822 822 822 822
747 748 751 753 755 757 760 762 765 767 770 773 777 780 783 785 788 791 793 795 797 798 800 802 804 806 807 809 810 812 813 814 815 816 817 818 819 819 820 820 820 821 821 821 822 822 822 822 822 822 822 822 822 821 821 821 821 821 822 822 822 822 822 822 822 822 822 822 822 821 821 821 821 821 821 820 821 821 821 821 821 821 821 821 822 822 822